Погода в Ларьяке

Погода в Ларьяке : погода сейчас, прогноз погоды и архив. Всё, что Вы хотите узнать о погоде в Ларьяке!

Хотите узнать прогноз погоды в Ларьяке? Тогда Вам сюда: Погода в Ларьяке

Поиск расширенной информации на нашем сайте:

Другие новости

Новости СМИ2

Главная страница сайта

Новости сайта

03.07.2017

Напоминаем, что на нашем специализированном сайте Метеоцентр.Азия вы можете получить высокодетализированные автоматические прогнозы погоды по пунктам России, СНГ и мира в авиационном формате (включающие направление и скорость ветра, видимость, явления погоды, количество и форму облачности, нижнюю и верхнюю границу облачности).


Погода в Ларьяке - сегодня

Время (UTC), дата Ветер
(°,м/с) 
Видим.   Явления Облачность Т
(°С)
Тd
(°С)
f(%) Тe
(°С)
Pmin
(гПа)
dP
(гПа)
Po
(мм)
O2
(г/м3)
Тmin Tmax R s Состояние
почвы
03 22.11.17 270 (З) 10 км  слаб. ливневой снег  10/8 600 м кучево-дожд., средняя 
[Cb cap|As op]
-2.2 -4 87 -3  1025.4  764  311  -2.3    0.6  27  равномерный
сухой снег
100% 
06 22.11.17 260 (З) 20000 м  {ливн. осадки}  10/10 600 м 
[Sc]
-2 -4 86 -3  1026.7  1.3  765  311  -2.3         
09 22.11.17 150 (ЮВ) 20000 м    10/8 600 м средняя 
[Sc|As op]
-1.7 -3.9 85 -1  1027.3  0.6  765  311           
12 22.11.17 130 (ЮВ) 4000 м  слаб. ливневой снег  10/6 600 м кучево-дожд., средняя 
[Cb cap|As op]
-2.3 -3.5 91 -2  1027  -0.3  765  311           
15 22.11.17 120 (ЮВ) 4000 м  слаб. ливневой снег  10/8 600 м кучево-дожд., средняя 
[Cb cap|As op]
-2 -3.1 92 -3  1025.8  -1.2  764  310    -1.4     
18 22.11.17 120 (ЮВ) 2000 м  дымка{ливн. осадки}  10/10 300 м 
[St]
-1.7 -2.4 95 -3  1024.2  -1.6  763  310           
21 22.11.17 120 (ЮВ) 4000 м  дымка  10/8 600 м средняя 
[Sc|As op]
-1.4 -2.5 92 -1  1023.1  -1.1  762  309           
00 23.11.17 190 (Ю) 20000 м    10/6 600 м кучево-дожд., средняя 
[Cb cap|As op]
-1.8 -3.2 90 -1  1022.5  -0.5  761  309           
03 23.11.17 тихо ()   20000 м    10/3 600 м средняя 
[Sc|As op]
-2.3 -3.6 91 -2  1022.3  -0.2  761  310  -2.3         
06 23.11.17 250 (З) 20000 м    10/5 600 м средняя 
[Sc|As op]
-2.3 -4.1 87 -2  1022.8  0.5  762  310  -2.4         
09 23.11.17 160 (Ю) 10 км  слаб. снег  10/8 600 м средняя 
[Sc|As op]
-2.8 -4.6 87 -2  1023.1  0.3  762  311           
12 23.11.17 240 (ЮЗ) 10 км  слаб. снег  10/8 300 м средняя 
[Frnb|As op]
-3.9 -5.3 90 -3  1023.6  0.4  762  312           
15 23.11.17 230 (ЮЗ) 10 км  слаб. снег  10/8 300 м средняя 
[Frnb|As op]
-5.7 -6.7 93 -5  1023.6  762  314    -2.2  0.0     
18 23.11.17 180 (Ю) 20000 м  {снег}  10/0 средняя 
[Ac As]
-7 -8.3 90 -7  1023.2  -0.5  762  316           
21 23.11.17 140 (ЮВ) 20000 м    10/0 средняя 
[Ac As]
-7.5 -9.1 88 -9  1021.4  -1.8  761  316           
00 24.11.17 160 (Ю) 20000 м    10/0 средняя, верхняя 
[As trans|Ci fib]
-7.5 -9.2 88 -9  1019.9  -1.6  759  316           
03 24.11.17 170 (Ю) 20000 м    10/0 средняя, верхняя 
[Ac As|Ci fib]
-7.4 -9.2 87 -9  1018  -1.9  758  315  -7.7    0.0  25  равномерный
сухой снег
100% 
06 24.11.17 190 (Ю) 20000 м    10/0 средняя, верхняя 
[Ac As|Ci fib]
-6.8 -9.3 82 -6  1016.3  -1.7  757  314  -8         
09 24.11.17 190 (Ю) 20000 м    10/0 средняя, верхняя 
[As trans|Ci fib]
-3.8 -7 78 -5  1013.8  -2.4  755  309           
12 24.11.17 210 (ЮЗ) 20000 м    10/0 средняя 
[As op]
-1.2 -5.3 74 -2  1010.2  -3.5  752  305           
15 24.11.17 220 (ЮЗ) 20000 м    10/0 средняя 
[As op]
-0.7 -5.6 69 -3  1008  -2.2  751  304    -0.3       
18 24.11.17 240 (ЮЗ) 20000 м    10/8 600 м средняя 
[Cu Sc|As op]
-1.9 -5.4 77 -5  1006.9  -1.1  750  305           
21 24.11.17 260 (З) 6{12}  10 км  слаб. ливневой снег  10/8 600 м кучево-дожд., средняя 
[Cb cap|As op]
-2.9 -5.9 80 -7  1006.7  -0.2  750  306           
00 25.11.17 280 (З) 6{13}  10 км  слаб. ливневой снег  8/6 600 м кучево-дожд., верхняя 
[Cb cap|Ci fib]
-7.3 -11 75 -12  1006.9  -0.1  750  311           
03 25.11.17 260 (З) 5{13}  20000 м  {ливн. осадки}  5/3 600 м средняя, верхняя 
[Sc|Ac trans|Ci fib]
-11.2 -14.6 76 -16  1005.8  -1.2  749  316  -12    0.2  24  равномерный
сухой снег
100% 
Время (UTC), дата Ветер
(°,м/с) 
Видим.   Явления Облачность Т
(°С)
Тd
(°С)
f(%) Тe
(°С)
Pmin
(гПа)
dP
(гПа)
Po
(мм)
O2
(г/м3)
Тmin Tmax R s Состояние
почвы

Для получения пояснительной информации подведите курсор к названию столбца.

ПОГОДА в Ларьяке - архив

Всё, что Вы хотите узнать о погоде в Ларьяке - удобно и подробно!

Выберите нужную дату (начиная с 1 января 2015* года) и нажмите кнопку "Найти".
Будут отображены архивные сводки погоды по пункту Ларьяк, начиная с указанной даты.


Отображать данные в формате CSV (для использования в таблицах Excel)


Внимание! Наш архив погоды предназначен исключительно для личного некоммерческого использования в познавательных целях. Если Вам необходимы официальные справки о состоянии погоды (для производственных, юридических, коммерческих и т.п. целей), обращайтесь в органы Росгидромета.

*Примечание: данная дата относится к архиву по метеостанциям СССР (Россия, СНГ, Балтия).
Архив по метеостанциям Зарубежной Европы и Азии (кроме Китая) хранится 10 дней, по другим регионам земного шара (Китай, Африка, Америка, Австралия, Океания) - 1 день.

Ларьяк - район местоположения метеостанции


Название, широта, долгота, высота метеостанции:
Ларьяк 61.1°ш. 80.3°д. 55 м над ур. моря [Российская Федерация]

Дополнительная информация

В oтличие oт бoльшинства пoгoдных сайтoв мы публикуем пoдрoбную метеoинфoрмацию в детальнoм прoфессиoнальнoм фoрмате.

Характеристики температуры и влажнoсти вoздуха измеряются на высoте 2 м в тени вдали oт зданий и деревьев.
Скoрoсть ветра измеряется на высoте 10 м (на урoвне рoста челoвека скoрoсть ветра ниже в 1.5-2 раза). Если метеoстанция нахoдится в гoрoде или в лесу, тo скoрoсть ветра занижена на 2-4 м/с пo сравнению с oткрытым местoм. Скoрoсть ветра над акватoриями крупных рек и oзёр, а также на вершинах хoлмoв на 2-5 м/с выше, чем в oбычных услoвиях.
Атмoсфернoе давление в разных тoчках местнoсти мoжет значительнo oтличаться oт давления на метеoстанции, в зависимoсти oт услoвий рельефа (при пoдъёме на 10 м давление пoнижается примернo на 1 мм рт.ст.).